Location: Ottawa
(45.4170°N, 75.7000°W)
Time: 07:29:44
(UTC-05:00)

ISS - Pass Details

Date: 14 February 2026
Orbit: 416 x 427 km, 51.6° (Epoch: 6 March)

Event Time Altitude Azimuth Distance (km) Brightness Sun altitude
Exits shadow 04:58:26 15° 160° (SSE) 1,203 -1.3 -22.9°
Maximum altitude 04:59:32 18° 135° (SE) 1,106 -1.2 -22.7°
Drops below altitude 10° 05:01:53 10° 91° (E) 1,492 0.2 -22.3°
Sets 05:04:25 0° 71° (ENE) 2,358 1.4 -21.9°
